Indianapolis, IN

9:20 AM EST on February 22, 2017 (GMT -0500)
Eagle Creek

Weather History for KEYE - January, 2014

Change the Weather History Date:

Tuesday, January 14, 2014

  Actual Average Record
Temperature  
Mean Temperature 34 °F 28 °F  
Max Temperature 45 °F 35 °F 50 °F (2002)
Min Temperature 22 °F 21 °F -2 °F (1997)
Degree Days  
Heating Degree Days 31 37  
Month to date heating degree days 582 518  
Since 1 July heating degree days 2836 2574  
Cooling Degree Days 0 0  
Month to date cooling degree days 0 0  
Year to date cooling degree days 0 0  
Moisture  
Dew Point 25 °F    
Average Humidity 75    
Maximum Humidity 100    
Minimum Humidity 49    
Precipitation  
Precipitation 0.02 in 0.09 in 0.86 in (2007)
Month to date precipitation 1.61 1.40  
Year to date precipitation 1.61 1.40  
Sea Level Pressure  
Sea Level Pressure 29.84 in    
Wind  
Wind Speed 10 mph (WSW)    
Max Wind Speed 24 mph    
Max Gust Speed 33 mph    
Visibility 8 miles    
Events Fog , Rain    
T = Trace of Precipitation, MM = Missing Value Source: NWS Daily Summary

Daily Weather History Graph

Daily Weather History Graph

Search for Another Location

Airport or City:

Trip Planner

Search our weather history database for the weather conditions in past years. The results will help you decide how hot, cold, wet, or windy it might be!

Date:

Astronomy

Jan. 14, 2014 Rise Set
Actual Time 8:05 AM EST 5:43 PM EST
Civil Twilight 7:35 AM EST 6:13 PM EST
Nautical Twilight 7:02 AM EST 6:46 PM EST
Astronomical Twilight 6:29 AM EST 7:19 PM EST
Moon 4:48 PM EST (1/14) 6:39 AM EST (1/14)
Length of Visible Light 10h 38m
Length of Day
9h 38m
Waxing Gibbous, 98% of the Moon is Illuminated
Jan 14
Waxing Gibbous
Jan 15
Full
Jan 24
Last Quarter
Jan 30
New
Feb 6
First Quarter

Hourly Weather History & Observations

Time (EST) Temp. Windchill Dew Point Humidity Pressure Visibility Wind Dir Wind Speed Gust Speed Precip Events Conditions
12:53 AM 32.0 °F 24.8 °F 28.0 °F 85% 29.81 in 10.0 mi WNW 8.1 mph - N/A   Clear
1:53 AM 30.9 °F 22.2 °F 26.1 °F 82% 29.81 in 10.0 mi WNW 10.4 mph - N/A   Clear
2:53 AM 30.0 °F 22.4 °F 24.1 °F 79% 29.82 in 10.0 mi WNW 8.1 mph - N/A   Clear
3:53 AM 28.0 °F - 24.1 °F 85% 29.82 in 10.0 mi Calm Calm - N/A   Clear
4:53 AM 28.0 °F - 23.0 °F 81% 29.82 in 9.0 mi Calm Calm - N/A   Clear
5:53 AM 24.1 °F - 21.9 °F 91% 29.83 in 6.0 mi Calm Calm - N/A   Clear
6:53 AM 21.9 °F - 19.9 °F 92% 29.84 in 4.0 mi Calm Calm - N/A   Clear
7:44 AM 24.1 °F 16.0 °F 21.0 °F 88% 29.83 in 4.0 mi SSW 6.9 mph - N/A   Scattered Clouds
7:53 AM 25.0 °F 18.1 °F 24.1 °F 96% 29.85 in 4.0 mi SSW 5.8 mph - N/A   Mostly Cloudy
8:01 AM 25.0 °F 18.1 °F 24.1 °F 96% 29.83 in 1.8 mi SSW 5.8 mph - N/A   Mostly Cloudy
8:14 AM 26.1 °F 19.4 °F 25.0 °F 96% 29.82 in 0.5 mi SSW 5.8 mph - N/A Fog Light Freezing Fog
8:38 AM 26.1 °F 20.5 °F 25.0 °F 96% 29.81 in 1.0 mi SSW 4.6 mph - N/A   Overcast
8:53 AM 26.1 °F 21.9 °F 25.0 °F 96% 29.83 in 2.0 mi South 3.5 mph - N/A   Overcast
9:09 AM 27.0 °F 20.5 °F 25.0 °F 92% 29.81 in 2.5 mi South 5.8 mph - N/A   Scattered Clouds
9:30 AM 28.0 °F 20.8 °F 26.1 °F 92% 29.80 in 3.0 mi SSE 6.9 mph - N/A   Clear
9:53 AM 30.0 °F 23.2 °F 26.1 °F 85% 29.83 in 5.0 mi South 6.9 mph - N/A   Clear
10:53 AM 34.0 °F 28.8 °F 27.0 °F 75% 29.83 in 9.0 mi South 5.8 mph - N/A   Clear
11:53 AM 37.0 °F 30.4 °F 24.1 °F 59% 29.81 in 10.0 mi South 9.2 mph 17.3 mph N/A   Clear
12:53 PM 39.9 °F 33.9 °F 24.1 °F 53% 29.75 in 10.0 mi South 9.2 mph 20.7 mph N/A   Mostly Cloudy
1:53 PM 43.0 °F 35.7 °F 25.0 °F 49% 29.74 in 10.0 mi South 15.0 mph - N/A   Mostly Cloudy
2:53 PM 43.0 °F 36.0 °F 28.9 °F 58% 29.74 in 10.0 mi SW 13.8 mph 28.8 mph N/A   Overcast
3:53 PM 37.0 °F 28.5 °F 32.0 °F 82% 29.80 in 5.0 mi West 13.8 mph 27.6 mph 0.02 in Rain Light Rain
4:00 PM 37.0 °F 28.1 °F 33.1 °F 86% 29.78 in 8.0 mi West 15.0 mph 24.2 mph 0.00 in Rain Light Rain
4:18 PM 36.0 °F 26.7 °F 32.0 °F 86% 29.79 in 10.0 mi West 15.0 mph 25.3 mph 0.00 in   Overcast
4:53 PM 35.1 °F 25.9 °F 30.9 °F 85% 29.83 in 9.0 mi West 13.8 mph 25.3 mph 0.00 in   Overcast
5:23 PM 35.1 °F 25.5 °F 28.9 °F 78% 29.82 in 10.0 mi West 15.0 mph 21.9 mph N/A   Overcast
5:53 PM 35.1 °F 27.9 °F 28.9 °F 78% 29.87 in 10.0 mi West 9.2 mph - N/A   Overcast
6:53 PM 34.0 °F 23.4 °F 25.0 °F 70% 29.90 in 10.0 mi WNW 17.3 mph - N/A   Overcast
7:04 PM 34.0 °F 24.2 °F 25.0 °F 70% 29.87 in 10.0 mi West 15.0 mph - N/A   Overcast
7:38 PM 32.0 °F 19.5 °F 21.9 °F 66% 29.90 in 10.0 mi West 21.9 mph 32.2 mph N/A   Overcast
7:53 PM 30.9 °F 19.8 °F 19.9 °F 64% 29.94 in 10.0 mi West 16.1 mph 31.1 mph N/A   Overcast
8:53 PM 30.0 °F 18.3 °F 17.1 °F 59% 29.96 in 10.0 mi West 17.3 mph 27.6 mph N/A   Overcast
9:53 PM 28.9 °F 15.8 °F 15.1 °F 56% 29.96 in 10.0 mi WNW 20.7 mph 28.8 mph N/A   Partly Cloudy
10:53 PM 28.0 °F 18.1 °F 16.0 °F 61% 29.95 in 10.0 mi West 11.5 mph - N/A   Clear
11:53 PM 27.0 °F 15.2 °F 17.1 °F 66% 29.94 in 10.0 mi West 15.0 mph 23.0 mph N/A   Mostly Cloudy